Location: Unspecified
(0.0000°N, 0.0000°E)
Time: 18:20:59
(UTC+00:00)

COSMOS 2251 DEB - Pass Details

Date: 22 February 2026
Orbit: 744 x 1394 km, 73.9° (Epoch: 2 March)

Event Time Altitude Azimuth Distance (km) Brightness Sun altitude
Exits shadow 02:33:42 15° 145° (SE) 3,028 ? -53.7°
Drops below altitude 10° 02:35:05 10° 149° (SSE) 3,453 ? -53.3°
Sets 02:38:10 0° 154° (SSE) 4,450 ? -52.6°
